| time (UTC) | temp F | wind direction | speed MPH | gust MPH | rain 1hr in | rain 24hr in | rain mn in | humidity % | barometer mb |
| 20260510095854 | 70 | 134 | 0.0 | 1.0 | 0.00 | 0.00 | 0.00 | 81 | 1012.2 |
| 20260510095354 | 70 | 134 | 0.0 | 1.0 | 0.00 | 0.00 | 0.00 | 80 | 1012.2 |
| 20260510094854 | 70 | 134 | 1.0 | 2.0 | 0.00 | 0.00 | 0.00 | 80 | 1012.1 |
| 20260510094354 | 70 | 134 | 1.0 | 2.0 | 0.00 | 0.00 | 0.00 | 80 | 1012.3 |
| 20260510093854 | 70 | 134 | 0.0 | 1.0 | 0.00 | 0.00 | 0.00 | 80 | 1012.1 |
| 20260510093354 | 70 | 134 | 0.0 | 1.0 | 0.00 | 0.00 | 0.00 | 80 | 1012.1 |
| 20260510092854 | 70 | 134 | 0.0 | 1.0 | 0.00 | 0.00 | 0.00 | 80 | 1012.0 |
| 20260510092352 | 70 | 134 | 0.0 | 2.0 | 0.00 | 0.00 | 0.00 | 80 | 1011.8 |
| 20260510091852 | 70 | 134 | 0.0 | 2.0 | 0.00 | 0.00 | 0.00 | 80 | 1011.7 |
| 20260510091353 | 70 | 134 | 0.0 | 2.0 | 0.00 | 0.00 | 0.00 | 80 | 1011.7 |
| 20260510090852 | 70 | 160 | 0.0 | 2.0 | 0.00 | 0.00 | 0.00 | 80 | 1011.7 |
| 20260510090350 | 70 | 160 | 0.0 | 2.0 | 0.00 | 0.00 | 0.00 | 80 | 1012.0 |
| 20260510085855 | 71 | 160 | 0.0 | 0.0 | 0.00 | 0.00 | 0.00 | 80 | 1011.8 |
| 20260510085851 | 70 | 160 | 0.0 | 0.0 | 0.00 | 0.00 | 0.00 | 80 | 1012.0 |
| 20260510085407 | 71 | 160 | 0.0 | 0.0 | 0.00 | 0.00 | 0.00 | 79 | 1011.7 |
| 20260510084348 | 71 | 160 | 0.0 | 1.0 | 0.00 | 0.00 | 0.00 | 79 | 1011.7 |
| 20260510083848 | 71 | 160 | 0.0 | 1.0 | 0.00 | 0.00 | 0.00 | 79 | 1011.8 |
| 20260510083348 | 71 | 160 | 0.0 | 0.0 | 0.00 | 0.00 | 0.00 | 79 | 1011.7 |
| 20260510082846 | 71 | 160 | 0.0 | 0.0 | 0.00 | 0.00 | 0.00 | 78 | 1011.7 |
| 20260510082344 | 72 | 160 | 0.0 | 0.0 | 0.00 | 0.00 | 0.00 | 78 | 1011.8 |
| 20260510081844 | 72 | 160 | 0.0 | 0.0 | 0.00 | 0.00 | 0.00 | 78 | 1011.8 |
| 20260510081345 | 72 | 160 | 0.0 | 0.0 | 0.00 | 0.00 | 0.00 | 78 | 1011.8 |
| 20260510080844 | 72 | 160 | 0.0 | 0.0 | 0.00 | 0.00 | 0.00 | 77 | 1011.7 |
| 20260510080345 | 72 | 160 | 0.0 | 0.0 | 0.00 | 0.00 | 0.00 | 77 | 1011.7 |
| 20260510075844 | 73 | 160 | 0.0 | 0.0 | 0.00 | 0.00 | 0.00 | 77 | 1011.6 |
| 20260510075348 | 73 | 160 | 0.0 | 1.0 | 0.00 | 0.00 | 0.00 | 76 | 1011.5 |
| 20260510075344 | 73 | 160 | 0.0 | 1.0 | 0.00 | 0.00 | 0.00 | 77 | 1011.6 |
| 20260510074342 | 73 | 160 | 0.0 | 0.0 | 0.00 | 0.00 | 0.00 | 76 | 1011.5 |
| 20260510073847 | 74 | 160 | 0.0 | 1.0 | 0.00 | 0.00 | 0.00 | 75 | 1011.6 |
| 20260510073843 | 73 | 160 | 0.0 | 1.0 | 0.00 | 0.00 | 0.00 | 75 | 1011.5 |
| 20260510072843 | 74 | 160 | 0.0 | 4.0 | 0.00 | 0.00 | 0.00 | 75 | 1011.6 |
| 20260510072342 | 74 | 160 | 1.0 | 4.0 | 0.00 | 0.00 | 0.00 | 75 | 1011.7 |
| 20260510071842 | 74 | 159 | 1.0 | 4.0 | 0.00 | 0.00 | 0.00 | 75 | 1011.7 |
| 20260510071342 | 74 | 167 | 1.0 | 5.0 | 0.00 | 0.00 | 0.00 | 75 | 1011.8 |
| 20260510070841 | 74 | 174 | 1.0 | 5.0 | 0.00 | 0.00 | 0.00 | 75 | 1011.7 |
| 20260510070448 | 75 | 153 | 1.0 | 4.0 | 0.00 | 0.00 | 0.00 | 74 | 1011.7 |
| 20260510070346 | 74 | 154 | 1.0 | 4.0 | 0.00 | 0.00 | 0.00 | 74 | 1011.7 |
| 20260510070342 | 74 | 145 | 0.0 | 4.0 | 0.00 | 0.00 | 0.00 | 74 | 1011.8 |
| 20260510064844 | 75 | 158 | 0.0 | 2.0 | 0.00 | 0.00 | 0.00 | 74 | 1011.7 |
| 20260510064840 | 75 | 135 | 1.0 | 5.0 | 0.00 | 0.00 | 0.00 | 74 | 1011.8 |
| 20260510063838 | 75 | 122 | 1.0 | 5.0 | 0.00 | 0.00 | 0.00 | 74 | 1012.0 |
| 20260510063342 | 75 | 119 | 1.0 | 5.0 | 0.00 | 0.00 | 0.00 | 74 | 1012.0 |
| 20260510063338 | 75 | 115 | 0.0 | 2.0 | 0.00 | 0.00 | 0.00 | 74 | 1011.8 |
| 20260510062337 | 75 | 205 | 1.0 | 5.0 | 0.00 | 0.00 | 0.00 | 73 | 1012.0 |
| 20260510061841 | 76 | 141 | 1.0 | 4.0 | 0.00 | 0.00 | 0.00 | 73 | 1012.0 |
| 20260510061837 | 76 | 125 | 1.0 | 4.0 | 0.00 | 0.00 | 0.00 | 73 | 1012.0 |
| 20260510060836 | 76 | 121 | 1.0 | 4.0 | 0.00 | 0.00 | 0.00 | 73 | 1012.0 |
| 20260510060336 | 76 | 132 | 1.0 | 4.0 | 0.00 | 0.00 | 0.00 | 73 | 1012.0 |
| 20260510055836 | 76 | 140 | 1.0 | 5.0 | 0.00 | 0.00 | 0.00 | 73 | 1012.0 |
| 20260510055337 | 76 | 129 | 1.0 | 6.0 | 0.00 | 0.00 | 0.00 | 73 | 1012.0 |
| 20260510054836 | 76 | 117 | 1.0 | 6.0 | 0.00 | 0.00 | 0.00 | 72 | 1011.8 |
| 20260510054336 | 77 | 126 | 1.0 | 6.0 | 0.00 | 0.00 | 0.00 | 72 | 1011.8 |
| 20260510053834 | 77 | 130 | 1.0 | 6.0 | 0.00 | 0.00 | 0.00 | 72 | 1011.6 |
| 20260510053334 | 77 | 150 | 2.0 | 8.0 | 0.00 | 0.00 | 0.00 | 72 | 1011.5 |
| 20260510052835 | 77 | 148 | 3.0 | 8.0 | 0.00 | 0.00 | 0.00 | 72 | 1011.4 |
| 20260510052332 | 77 | 137 | 3.0 | 6.0 | 0.00 | 0.00 | 0.00 | 71 | 1011.3 |
| 20260510051833 | 78 | 171 | 3.0 | 8.0 | 0.00 | 0.00 | 0.00 | 71 | 1011.3 |
| 20260510051336 | 78 | 166 | 1.0 | 6.0 | 0.00 | 0.00 | 0.00 | 71 | 1011.3 |
| 20260510051332 | 78 | 142 | 2.0 | 8.0 | 0.00 | 0.00 | 0.00 | 71 | 1011.3 |
| 20260510050332 | 78 | 162 | 1.0 | 7.0 | 0.00 | 0.00 | 0.00 | 71 | 1011.3 |
| 20260510050328 | 78 | 128 | 2.0 | 7.0 | 0.00 | 0.00 | 0.01 | 70 | 1011.3 |
| 20260510045329 | 78 | 111 | 2.0 | 7.0 | 0.00 | 0.00 | 0.01 | 69 | 1011.2 |
| 20260510045325 | 79 | 123 | 2.0 | 7.0 | 0.00 | 0.00 | 0.01 | 69 | 1011.2 |
| 20260510044324 | 79 | 130 | 2.0 | 8.0 | 0.00 | 0.00 | 0.01 | 69 | 1011.1 |
| 20260510043823 | 79 | 143 | 2.0 | 8.0 | 0.00 | 0.00 | 0.01 | 68 | 1011.2 |
| 20260510043325 | 79 | 120 | 1.0 | 7.0 | 0.00 | 0.00 | 0.01 | 67 | 1011.1 |
| 20260510043321 | 79 | 113 | 1.0 | 7.0 | 0.00 | 0.00 | 0.01 | 67 | 1011.1 |
| 20260510042320 | 80 | 107 | 1.0 | 6.0 | 0.00 | 0.00 | 0.01 | 66 | 1011.1 |
| 20260510041824 | 80 | 137 | 1.0 | 6.0 | 0.00 | 0.00 | 0.01 | 66 | 1011.1 |
| 20260510041820 | 80 | 126 | 0.0 | 2.0 | 0.00 | 0.00 | 0.01 | 66 | 1011.0 |
| 20260510040819 | 80 | 130 | 1.0 | 4.0 | 0.00 | 0.00 | 0.01 | 65 | 1011.0 |
| 20260510040318 | 80 | 130 | 1.0 | 4.0 | 0.00 | 0.00 | 0.01 | 65 | 1010.9 |
| 20260510035818 | 80 | 151 | 1.0 | 4.0 | 0.00 | 0.00 | 0.01 | 65 | 1010.9 |
| 20260510035318 | 80 | 117 | 1.0 | 4.0 | 0.00 | 0.00 | 0.01 | 65 | 1010.9 |
| 20260510034818 | 81 | 127 | 1.0 | 4.0 | 0.00 | 0.00 | 0.01 | 65 | 1010.9 |
| 20260510034319 | 81 | 120 | 1.0 | 6.0 | 0.00 | 0.00 | 0.01 | 65 | 1010.8 |
| 20260510034315 | 81 | 114 | 1.0 | 4.0 | 0.00 | 0.00 | 0.01 | 64 | 1010.8 |
| 20260510033918 | 81 | 123 | 1.0 | 6.0 | 0.00 | 0.00 | 0.01 | 64 | 1010.8 |
| 20260510032810 | 81 | 111 | 0.0 | 4.0 | 0.00 | 0.00 | 0.01 | 64 | 1010.8 |
| 20260510032310 | 81 | 109 | 0.0 | 4.0 | 0.00 | 0.00 | 0.01 | 64 | 1010.7 |
| 20260510031811 | 81 | 111 | 0.0 | 3.0 | 0.00 | 0.00 | 0.01 | 64 | 1010.7 |
| 20260510031310 | 81 | 111 | 0.0 | 3.0 | 0.00 | 0.00 | 0.01 | 63 | 1010.6 |
| 20260510030808 | 82 | 148 | 1.0 | 3.0 | 0.00 | 0.00 | 0.01 | 63 | 1010.6 |
| 20260510030309 | 82 | 144 | 1.0 | 4.0 | 0.00 | 0.00 | 0.01 | 62 | 1010.4 |
| 20260510025806 | 82 | 144 | 1.0 | 4.0 | 0.00 | 0.00 | 0.01 | 62 | 1010.5 |
| 20260510025306 | 82 | 123 | 1.0 | 5.0 | 0.00 | 0.00 | 0.01 | 62 | 1010.5 |
| 20260510024808 | 82 | 119 | 1.0 | 5.0 | 0.00 | 0.00 | 0.01 | 63 | 1010.4 |
| 20260510024804 | 82 | 107 | 1.0 | 5.0 | 0.00 | 0.00 | 0.01 | 62 | 1010.4 |
| 20260510023804 | 82 | 126 | 1.0 | 5.0 | 0.00 | 0.00 | 0.01 | 63 | 1010.3 |
| 20260510023304 | 83 | 141 | 1.0 | 9.0 | 0.00 | 0.00 | 0.01 | 62 | 1010.2 |
| 20260510022805 | 83 | 114 | 1.0 | 9.0 | 0.00 | 0.00 | 0.01 | 62 | 1010.2 |
| 20260510022308 | 83 | 115 | 1.0 | 5.0 | 0.00 | 0.00 | 0.01 | 62 | 1010.1 |
| 20260510022306 | 83 | 96 | 1.0 | 5.0 | 0.00 | 0.00 | 0.01 | 62 | 1010.1 |
| 20260510021308 | 83 | 126 | 1.0 | 6.0 | 0.00 | 0.00 | 0.01 | 62 | 1009.9 |
| 20260510021304 | 83 | 118 | 1.0 | 5.0 | 0.00 | 0.00 | 0.01 | 62 | 1010.0 |
| 20260510020304 | 83 | 122 | 1.0 | 6.0 | 0.00 | 0.00 | 0.01 | 61 | 1009.8 |
| 20260510015803 | 84 | 130 | 1.0 | 4.0 | 0.00 | 0.00 | 0.01 | 61 | 1009.8 |
| 20260510015306 | 84 | 135 | 1.0 | 4.0 | 0.00 | 0.00 | 0.01 | 60 | 1009.7 |
| 20260510014803 | 84 | 135 | 0.0 | 2.0 | 0.00 | 0.00 | 0.01 | 59 | 1009.6 |
| 20260510014303 | 84 | 135 | 0.0 | 1.0 | 0.00 | 0.00 | 0.01 | 58 | 1009.5 |
| 20260510013802 | 85 | 135 | 0.0 | 2.0 | 0.00 | 0.00 | 0.01 | 58 | 1009.4 |
| 20260510013303 | 85 | 135 | 0.0 | 2.0 | 0.00 | 0.00 | 0.01 | 57 | 1009.2 |
| 20260510012803 | 85 | 135 | 0.0 | 2.0 | 0.00 | 0.00 | 0.01 | 57 | 1009.2 |
| 20260510012306 | 86 | 135 | 0.0 | 4.0 | 0.00 | 0.00 | 0.01 | 56 | 1009.1 |
| 20260510011803 | 86 | 135 | 1.0 | 5.0 | 0.00 | 0.00 | 0.01 | 55 | 1009.1 |
| 20260510011303 | 87 | 134 | 1.0 | 5.0 | 0.00 | 0.00 | 0.01 | 55 | 1009.0 |
| 20260510010806 | 88 | 138 | 1.0 | 5.0 | 0.00 | 0.00 | 0.01 | 53 | 1008.8 |
| 20260510010802 | 87 | 136 | 0.0 | 5.0 | 0.00 | 0.00 | 0.01 | 54 | 1008.9 |
| 20260510005802 | 88 | 143 | 2.0 | 5.0 | 0.00 | 0.00 | 0.01 | 53 | 1008.8 |
| 20260510005307 | 89 | 212 | 3.0 | 9.0 | 0.00 | 0.00 | 0.01 | 53 | 1008.7 |
| 20260510004303 | 89 | 208 | 3.0 | 9.0 | 0.00 | 0.00 | 0.01 | 52 | 1008.6 |
| 20260510003803 | 89 | 88 | 3.0 | 7.0 | 0.00 | 0.00 | 0.01 | 53 | 1008.4 |
| 20260510003302 | 89 | 145 | 3.0 | 7.0 | 0.00 | 0.00 | 0.01 | 53 | 1008.3 |
| 20260510002802 | 90 | 160 | 3.0 | 7.0 | 0.00 | 0.00 | 0.01 | 52 | 1008.3 |
| 20260510002307 | 90 | 163 | 3.0 | 10.0 | 0.00 | 0.00 | 0.01 | 51 | 1008.3 |
| 20260510002301 | 90 | 148 | 3.0 | 8.0 | 0.00 | 0.00 | 0.01 | 52 | 1008.2 |
| 20260510001301 | 91 | 148 | 4.0 | 10.0 | 0.00 | 0.00 | 0.01 | 51 | 1008.4 |
| 20260510000801 | 91 | 168 | 4.0 | 11.0 | 0.00 | 0.00 | 0.01 | 51 | 1008.4 |
| 20260510000258 | 91 | 177 | 5.0 | 11.0 | 0.00 | 0.00 | 0.01 | 50 | 1008.4 |
| 20260509235759 | 92 | 158 | 5.0 | 9.0 | 0.00 | 0.00 | 0.01 | 49 | 1008.3 |
| 20260509235256 | 92 | 108 | 4.0 | 9.0 | 0.00 | 0.00 | 0.01 | 48 | 1008.4 |
| 20260509234757 | 93 | 154 | 2.0 | 8.0 | 0.00 | 0.00 | 0.01 | 48 | 1008.4 |
| 20260509234257 | 93 | 173 | 3.0 | 8.0 | 0.00 | 0.00 | 0.01 | 47 | 1008.6 |
| 20260509233757 | 93 | 133 | 3.0 | 8.0 | 0.00 | 0.00 | 0.01 | 47 | 1008.6 |
| 20260509233256 | 94 | 137 | 2.0 | 7.0 | 0.00 | 0.00 | 0.01 | 46 | 1008.4 |
| 20260509232757 | 94 | 198 | 3.0 | 8.0 | 0.00 | 0.00 | 0.01 | 46 | 1008.4 |
| 20260509232256 | 94 | 134 | 3.0 | 8.0 | 0.00 | 0.00 | 0.01 | 46 | 1008.4 |
| 20260509231756 | 95 | 155 | 2.0 | 7.0 | 0.00 | 0.00 | 0.01 | 44 | 1008.4 |
| 20260509231301 | 95 | 167 | 1.0 | 5.0 | 0.00 | 0.00 | 0.01 | 45 | 1008.4 |
| 20260509231257 | 95 | 122 | 1.0 | 5.0 | 0.00 | 0.00 | 0.01 | 45 | 1008.4 |
| 20260509230257 | 95 | 131 | 1.0 | 5.0 | 0.00 | 0.00 | 0.01 | 45 | 1008.3 |
| 20260509225756 | 94 | 120 | 2.0 | 9.0 | 0.00 | 0.00 | 0.01 | 45 | 1008.4 |
| 20260509225257 | 94 | 124 | 2.0 | 9.0 | 0.00 | 0.00 | 0.01 | 47 | 1008.4 |
| 20260509224756 | 94 | 194 | 2.0 | 5.0 | 0.00 | 0.00 | 0.01 | 45 | 1008.3 |
| 20260509224257 | 93 | 106 | 2.0 | 5.0 | 0.00 | 0.00 | 0.01 | 47 | 1008.4 |
| 20260509223757 | 93 | 194 | 2.0 | 6.0 | 0.00 | 0.00 | 0.01 | 47 | 1008.4 |
| 20260509223255 | 93 | 215 | 1.0 | 6.0 | 0.00 | 0.00 | 0.01 | 49 | 1008.3 |
| 20260509222755 | 93 | 171 | 1.0 | 5.0 | 0.00 | 0.00 | 0.01 | 48 | 1008.4 |
| 20260509222252 | 92 | 270 | 1.0 | 5.0 | 0.00 | 0.00 | 0.01 | 46 | 1008.4 |
| 20260509221753 | 93 | 225 | 1.0 | 5.0 | 0.00 | 0.00 | 0.01 | 46 | 1008.4 |
| 20260509221253 | 93 | 146 | 1.0 | 4.0 | 0.00 | 0.00 | 0.01 | 45 | 1008.4 |
| 20260509220756 | 92 | 153 | 2.0 | 7.0 | 0.00 | 0.00 | 0.01 | 49 | 1008.6 |
| 20260509220752 | 92 | 221 | 0.0 | 7.0 | 0.00 | 0.00 | 0.01 | 47 | 1008.4 |
| 20260509215753 | 92 | 153 | 3.0 | 7.0 | 0.00 | 0.00 | 0.01 | 48 | 1008.6 |
| 20260509215253 | 92 | 161 | 2.0 | 7.0 | 0.00 | 0.00 | 0.01 | 49 | 1008.4 |
| 20260509214753 | 92 | 157 | 2.0 | 6.0 | 0.00 | 0.00 | 0.01 | 50 | 1008.4 |
| 20260509214252 | 92 | 140 | 2.0 | 6.0 | 0.00 | 0.00 | 0.01 | 48 | 1008.4 |
| 20260509213753 | 92 | 245 | 2.0 | 7.0 | 0.00 | 0.00 | 0.01 | 48 | 1008.6 |
| 20260509213253 | 92 | 241 | 3.0 | 7.0 | 0.00 | 0.00 | 0.01 | 47 | 1008.7 |
| 20260509212752 | 93 | 150 | 2.0 | 7.0 | 0.00 | 0.00 | 0.01 | 49 | 1008.6 |
| 20260509212253 | 93 | 136 | 1.0 | 7.0 | 0.00 | 0.00 | 0.01 | 49 | 1008.7 |
| 20260509211753 | 92 | 143 | 2.0 | 7.0 | 0.00 | 0.00 | 0.01 | 48 | 1008.8 |
| 20260509211252 | 91 | 210 | 2.0 | 6.0 | 0.00 | 0.00 | 0.01 | 50 | 1008.8 |
| 20260509210753 | 91 | 259 | 2.0 | 6.0 | 0.00 | 0.00 | 0.01 | 49 | 1008.9 |
| 20260509210253 | 91 | 134 | 2.0 | 9.0 | 0.00 | 0.00 | 0.01 | 49 | 1009.0 |
| 20260509205752 | 90 | 233 | 3.0 | 9.0 | 0.00 | 0.00 | 0.01 | 48 | 1009.1 |
| 20260509205253 | 90 | 252 | 4.0 | 11.0 | 0.00 | 0.00 | 0.01 | 50 | 1009.1 |
| 20260509204753 | 90 | 277 | 3.0 | 11.0 | 0.00 | 0.00 | 0.01 | 50 | 1009.1 |
| 20260509204253 | 90 | 145 | 2.0 | 6.0 | 0.00 | 0.00 | 0.01 | 53 | 1009.2 |
| 20260509203753 | 90 | 202 | 2.0 | 6.0 | 0.00 | 0.00 | 0.01 | 55 | 1009.4 |
| 20260509203252 | 90 | 173 | 2.0 | 7.0 | 0.00 | 0.00 | 0.01 | 53 | 1009.6 |
| 20260509202751 | 90 | 242 | 4.0 | 9.0 | 0.00 | 0.00 | 0.01 | 53 | 1009.6 |
| 20260509202251 | 90 | 217 | 3.0 | 9.0 | 0.00 | 0.00 | 0.01 | 53 | 1009.7 |
| 20260509201751 | 90 | 246 | 4.0 | 11.0 | 0.00 | 0.00 | 0.01 | 53 | 1009.8 |
| 20260509201253 | 90 | 203 | 3.0 | 9.0 | 0.00 | 0.00 | 0.01 | 52 | 1009.9 |
| 20260509201249 | 89 | 193 | 4.0 | 11.0 | 0.00 | 0.00 | 0.01 | 54 | 1009.9 |
| 20260509200247 | 89 | 163 | 2.0 | 9.0 | 0.00 | 0.00 | 0.01 | 57 | 1010.0 |
| 20260509195751 | 88 | 240 | 2.0 | 7.0 | 0.00 | 0.00 | 0.01 | 61 | 1010.2 |
| 20260509195747 | 88 | 235 | 2.0 | 7.0 | 0.00 | 0.00 | 0.01 | 56 | 1010.1 |
| 20260509194747 | 88 | 259 | 2.0 | 7.0 | 0.00 | 0.00 | 0.01 | 58 | 1010.2 |
| 20260509194246 | 89 | 254 | 3.0 | 7.0 | 0.00 | 0.00 | 0.01 | 57 | 1010.4 |
| 20260509193745 | 88 | 151 | 3.0 | 8.0 | 0.00 | 0.00 | 0.01 | 57 | 1010.5 |
| 20260509193246 | 88 | 126 | 4.0 | 8.0 | 0.00 | 0.00 | 0.01 | 58 | 1010.5 |
| 20260509192745 | 88 | 157 | 3.0 | 8.0 | 0.00 | 0.00 | 0.01 | 58 | 1010.6 |
| 20260509192243 | 88 | 198 | 2.0 | 7.0 | 0.00 | 0.00 | 0.01 | 61 | 1010.6 |
| 20260509191743 | 87 | 211 | 3.0 | 9.0 | 0.00 | 0.00 | 0.01 | 62 | 1010.7 |
| 20260509191242 | 86 | 248 | 4.0 | 9.0 | 0.00 | 0.00 | 0.01 | 62 | 1010.7 |
| 20260509190747 | 87 | 153 | 3.0 | 9.0 | 0.00 | 0.00 | 0.01 | 62 | 1010.6 |
| 20260509190743 | 87 | 200 | 2.0 | 8.0 | 0.00 | 0.00 | 0.01 | 61 | 1010.7 |
| 20260509185743 | 87 | 238 | 4.0 | 9.0 | 0.00 | 0.00 | 0.01 | 61 | 1010.8 |
| 20260509185247 | 86 | 234 | 2.0 | 7.0 | 0.00 | 0.00 | 0.01 | 64 | 1010.8 |
| 20260509185243 | 87 | 206 | 2.0 | 9.0 | 0.00 | 0.00 | 0.01 | 63 | 1010.8 |
| 20260509184243 | 86 | 230 | 3.0 | 8.0 | 0.00 | 0.00 | 0.01 | 63 | 1010.9 |
| 20260509183743 | 86 | 191 | 3.0 | 8.0 | 0.00 | 0.00 | 0.01 | 64 | 1010.8 |
| 20260509183241 | 86 | 217 | 3.0 | 7.0 | 0.00 | 0.00 | 0.01 | 64 | 1011.0 |
| 20260509182744 | 85 | 232 | 3.0 | 8.0 | 0.00 | 0.00 | 0.01 | 67 | 1011.1 |
| 20260509182740 | 85 | 234 | 4.0 | 8.0 | 0.00 | 0.00 | 0.01 | 65 | 1011.0 |
| 20260509181744 | 85 | 176 | 3.0 | 8.0 | 0.00 | 0.00 | 0.01 | 66 | 1011.3 |
| 20260509181740 | 85 | 214 | 3.0 | 8.0 | 0.00 | 0.00 | 0.01 | 68 | 1011.2 |
| 20260509180739 | 85 | 249 | 2.0 | 8.0 | 0.00 | 0.00 | 0.01 | 66 | 1011.3 |
| 20260509180236 | 85 | 221 | 2.0 | 6.0 | 0.00 | 0.00 | 0.01 | 67 | 1011.4 |
| 20260509175737 | 85 | 221 | 3.0 | 9.0 | 0.00 | 0.00 | 0.01 | 65 | 1011.4 |
| 20260509175238 | 85 | 241 | 4.0 | 9.0 | 0.00 | 0.00 | 0.01 | 65 | 1011.4 |
| 20260509174737 | 85 | 209 | 5.0 | 9.0 | 0.00 | 0.00 | 0.01 | 65 | 1011.5 |
| 20260509174237 | 85 | 231 | 4.0 | 10.0 | 0.00 | 0.00 | 0.01 | 66 | 1011.5 |
| 20260509173738 | 83 | 202 | 4.0 | 11.0 | 0.00 | 0.00 | 0.01 | 66 | 1011.6 |
| 20260509173734 | 84 | 139 | 3.0 | 10.0 | 0.00 | 0.00 | 0.01 | 64 | 1011.5 |
| 20260509173339 | 83 | 254 | 3.0 | 11.0 | 0.00 | 0.00 | 0.01 | 68 | 1011.8 |
| 20260509172839 | 83 | 248 | 3.0 | 10.0 | 0.00 | 0.00 | 0.01 | 69 | 1012.0 |
| 20260509171735 | 84 | 242 | 4.0 | 10.0 | 0.00 | 0.00 | 0.01 | 68 | 1012.0 |
| 20260509171235 | 84 | 225 | 4.0 | 9.0 | 0.00 | 0.00 | 0.01 | 66 | 1012.0 |
| 20260509170739 | 82 | 232 | 4.0 | 10.0 | 0.00 | 0.00 | 0.01 | 72 | 1011.8 |
| 20260509170735 | 83 | 135 | 4.0 | 10.0 | 0.00 | 0.00 | 0.01 | 71 | 1012.0 |
| 20260509165733 | 81 | 155 | 3.0 | 7.0 | 0.00 | 0.00 | 0.01 | 74 | 1011.7 |
| 20260509165235 | 81 | 248 | 5.0 | 12.0 | 0.00 | 0.00 | 0.01 | 75 | 1011.7 |
| 20260509165231 | 82 | 223 | 4.0 | 12.0 | 0.00 | 0.00 | 0.01 | 74 | 1011.7 |
| 20260509164235 | 80 | 158 | 5.0 | 12.0 | 0.00 | 0.00 | 0.01 | 76 | 1011.4 |
| 20260509164231 | 81 | 184 | 6.0 | 12.0 | 0.00 | 0.00 | 0.01 | 75 | 1011.5 |
| 20260509163231 | 80 | 209 | 4.0 | 12.0 | 0.00 | 0.00 | 0.01 | 77 | 1011.5 |
| 20260509162731 | 80 | 227 | 3.0 | 8.0 | 0.00 | 0.00 | 0.01 | 78 | 1011.8 |
| 20260509162234 | 79 | 241 | 2.0 | 6.0 | 0.00 | 0.00 | 0.01 | 79 | 1011.7 |
| 20260509162230 | 80 | 239 | 2.0 | 7.0 | 0.00 | 0.00 | 0.01 | 78 | 1011.7 |
| 20260509161229 | 78 | 217 | 1.0 | 6.0 | 0.00 | 0.00 | 0.01 | 81 | 1012.1 |
| 20260509160726 | 78 | 185 | 0.0 | 2.0 | 0.00 | 0.00 | 0.01 | 82 | 1012.2 |
| 20260509160229 | 77 | 5 | 1.0 | 2.0 | 0.00 | 0.00 | 0.01 | 84 | 1012.4 |
| 20260509160225 | 78 | 40 | 0.0 | 2.0 | 0.00 | 0.00 | 0.01 | 83 | 1012.2 |
| 20260509155828 | 77 | 40 | 1.0 | 2.0 | 0.00 | 0.00 | 0.01 | 83 | 1012.1 |
| 20260509154723 | 77 | 219 | 1.0 | 4.0 | 0.00 | 0.00 | 0.01 | 85 | 1012.5 |
| 20260509154223 | 76 | 74 | 1.0 | 4.0 | 0.00 | 0.00 | 0.01 | 86 | 1012.4 |
| 20260509153723 | 76 | 136 | 0.0 | 2.0 | 0.00 | 0.00 | 0.01 | 88 | 1012.4 |
| 20260509153223 | 75 | 152 | 0.0 | 5.0 | 0.00 | 0.00 | 0.01 | 88 | 1012.5 |
| 20260509152722 | 75 | 152 | 0.0 | 5.0 | 0.00 | 0.00 | 0.01 | 88 | 1012.7 |
| 20260509152223 | 74 | 152 | 1.0 | 5.0 | 0.00 | 0.00 | 0.01 | 88 | 1012.6 |
| 20260509151723 | 74 | 131 | 2.0 | 5.0 | 0.00 | 0.00 | 0.01 | 88 | 1012.6 |
| 20260509151223 | 75 | 182 | 2.0 | 5.0 | 0.00 | 0.00 | 0.01 | 89 | 1012.7 |
| 20260509150723 | 75 | 161 | 1.0 | 5.0 | 0.00 | 0.00 | 0.01 | 89 | 1012.6 |
| 20260509150220 | 75 | 158 | 1.0 | 5.0 | 0.00 | 0.00 | 0.01 | 89 | 1012.5 |
| 20260509145721 | 75 | 192 | 1.0 | 5.0 | 0.00 | 0.00 | 0.01 | 90 | 1012.6 |
| 20260509145221 | 75 | 108 | 1.0 | 5.0 | 0.00 | 0.00 | 0.01 | 90 | 1012.5 |
| 20260509144721 | 75 | 184 | 1.0 | 5.0 | 0.00 | 0.00 | 0.01 | 91 | 1012.4 |
| 20260509144225 | 74 | 115 | 0.0 | 2.0 | 0.00 | 0.00 | 0.01 | 91 | 1012.6 |
| 20260509144221 | 75 | 119 | 0.0 | 3.0 | 0.00 | 0.00 | 0.01 | 91 | 1012.4 |
| 20260509143221 | 74 | 116 | 0.0 | 2.0 | 0.00 | 0.00 | 0.01 | 91 | 1012.6 |
| 20260509142721 | 74 | 115 | 0.0 | 2.0 | 0.00 | 0.00 | 0.01 | 91 | 1012.6 |
| 20260509142219 | 74 | 100 | 0.0 | 2.0 | 0.00 | 0.00 | 0.01 | 91 | 1012.6 |
| 20260509141718 | 74 | 105 | 0.0 | 2.0 | 0.00 | 0.00 | 0.01 | 91 | 1012.6 |
| 20260509141219 | 73 | 105 | 0.0 | 2.0 | 0.00 | 0.00 | 0.01 | 91 | 1012.4 |
| 20260509140719 | 73 | 140 | 0.0 | 2.0 | 0.00 | 0.00 | 0.01 | 91 | 1012.2 |
| 20260509140222 | 73 | 132 | 0.0 | 2.0 | 0.00 | 0.00 | 0.01 | 91 | 1012.2 |
| 20260509135719 | 73 | 149 | 0.0 | 1.0 | 0.00 | 0.00 | 0.01 | 91 | 1012.1 |
| 20260509135219 | 73 | 9 | 0.0 | 1.0 | 0.00 | 0.00 | 0.01 | 91 | 1012.1 |
| 20260509134719 | 73 | 9 | 1.0 | 4.0 | 0.00 | 0.00 | 0.01 | 91 | 1011.6 |
| 20260509134219 | 73 | 9 | 1.0 | 4.0 | 0.00 | 0.00 | 0.01 | 91 | 1011.5 |
| 20260509133717 | 73 | 11 | 1.0 | 5.0 | 0.00 | 0.00 | 0.01 | 91 | 1011.4 |
| 20260509133217 | 73 | 11 | 1.0 | 5.0 | 0.00 | 0.00 | 0.01 | 91 | 1011.4 |
| 20260509132718 | 73 | 0 | 1.0 | 4.0 | 0.00 | 0.00 | 0.01 | 91 | 1011.5 |
| 20260509132217 | 73 | 350 | 1.0 | 5.0 | 0.00 | 0.00 | 0.01 | 91 | 1011.3 |
| 20260509131718 | 73 | 37 | 0.0 | 5.0 | 0.00 | 0.00 | 0.01 | 91 | 1011.4 |
| 20260509131217 | 73 | 134 | 0.0 | 1.0 | 0.00 | 0.00 | 0.01 | 92 | 1011.7 |
| 20260509130718 | 73 | 134 | 1.0 | 5.0 | 0.00 | 0.00 | 0.01 | 91 | 1012.0 |
| 20260509130218 | 73 | 61 | 1.0 | 5.0 | 0.00 | 0.00 | 0.01 | 91 | 1011.8 |
| 20260509125714 | 73 | 107 | 2.0 | 0.0 | 0.00 | 0.00 | 0.01 | 91 | 1011.8 |
| 20260509125209 | 73 | 88 | 2.0 | 7.0 | 0.01 | 0.01 | 0.01 | 91 | 1011.6 |
| 20260509125205 | 73 | 106 | 2.0 | 5.0 | 0.01 | 0.01 | 0.01 | 91 | 1012.0 |
| 20260509124205 | 72 | 88 | 1.0 | 7.0 | 0.01 | 0.01 | 0.01 | 91 | 1011.8 |
| 20260509123706 | 72 | 45 | 3.0 | 7.0 | 0.01 | 0.01 | 0.01 | 91 | 1012.2 |
| 20260509123702 | 72 | 45 | 2.0 | 7.0 | 0.01 | 0.01 | 0.01 | 91 | 1012.1 |
| 20260509123304 | 72 | 12 | 3.0 | 8.0 | 0.01 | 0.01 | 0.01 | 91 | 1012.3 |
| 20260509122158 | 72 | 343 | 5.0 | 10.0 | 0.01 | 0.01 | 0.01 | 91 | 1012.3 |
| 20260509121657 | 72 | 45 | 5.0 | 10.0 | 0.01 | 0.01 | 0.01 | 91 | 1012.2 |
| 20260509121156 | 72 | 47 | 3.0 | 8.0 | 0.01 | 0.01 | 0.01 | 91 | 1012.2 |
| 20260509120657 | 72 | 28 | 3.0 | 6.0 | 0.00 | 0.00 | 0.00 | 91 | 1012.0 |
| 20260509120653 | 72 | 32 | 2.0 | 6.0 | 0.00 | 0.00 | 0.00 | 91 | 1011.8 |
| 20260509115652 | 72 | 28 | 2.0 | 6.0 | 0.00 | 0.00 | 0.00 | 91 | 1011.7 |
| 20260509115157 | 72 | 30 | 0.0 | 2.0 | 0.00 | 0.00 | 0.00 | 91 | 1011.4 |
| 20260509115153 | 72 | 32 | 1.0 | 6.0 | 0.00 | 0.00 | 0.00 | 91 | 1011.6 |
| 20260509114150 | 73 | 54 | 0.0 | 2.0 | 0.00 | 0.00 | 0.00 | 91 | 1011.3 |
| 20260509113648 | 73 | 54 | 0.0 | 1.0 | 0.00 | 0.00 | 0.00 | 91 | 1011.2 |
| 20260509113148 | 73 | 54 | 0.0 | 1.0 | 0.00 | 0.00 | 0.00 | 91 | 1011.1 |
| 20260509112649 | 73 | 54 | 0.0 | 4.0 | 0.00 | 0.00 | 0.00 | 91 | 1011.1 |
| 20260509112148 | 73 | 64 | 1.0 | 4.0 | 0.00 | 0.00 | 0.00 | 90 | 1011.1 |
| 20260509112144 | 73 | 54 | 1.0 | 4.0 | 0.00 | 0.00 | 0.00 | 91 | 1011.0 |
| 20260509111145 | 73 | 87 | 1.0 | 5.0 | 0.00 | 0.00 | 0.00 | 90 | 1011.1 |
| 20260509111141 | 73 | 53 | 1.0 | 5.0 | 0.00 | 0.00 | 0.00 | 90 | 1011.0 |
| 20260509110140 | 73 | 17 | 1.0 | 4.0 | 0.00 | 0.00 | 0.00 | 90 | 1010.9 |
| 20260509105641 | 73 | 55 | 1.0 | 4.0 | 0.00 | 0.00 | 0.00 | 90 | 1010.9 |
| 20260509105143 | 73 | 53 | 2.0 | 5.0 | 0.00 | 0.00 | 0.00 | 90 | 1011.0 |
| 20260509105139 | 73 | 53 | 1.0 | 5.0 | 0.00 | 0.00 | 0.00 | 90 | 1011.0 |
| 20260509104136 | 73 | 26 | 1.0 | 4.0 | 0.00 | 0.00 | 0.00 | 90 | 1011.0 |
| 20260509103633 | 73 | 29 | 0.0 | 3.0 | 0.00 | 0.00 | 0.00 | 91 | 1011.1 |
| 20260509103132 | 73 | 52 | 0.0 | 2.0 | 0.00 | 0.00 | 0.00 | 91 | 1011.2 |
| 20260509103128 | 73 | 52 | 0.0 | 2.0 | 0.00 | 0.00 | 0.00 | 91 | 1011.2 |
| 20260509102127 | 73 | 52 | 0.0 | 2.0 | 0.00 | 0.00 | 0.00 | 91 | 1011.1 |
| 20260509101626 | 72 | 52 | 0.0 | 2.0 | 0.00 | 0.00 | 0.00 | 91 | 1011.1 |
| 20260509101123 | 72 | 60 | 0.0 | 1.0 | 0.00 | 0.00 | 0.00 | 91 | 1010.9 |
| 20260509100622 | 72 | 60 | 0.0 | 1.0 | 0.00 | 0.00 | 0.00 | 91 | 1010.9 |
| 20260509100123 | 72 | 60 | 0.0 | 4.0 | 0.00 | 0.00 | 0.00 | 91 | 1010.8 |
| 20260509100119 | 72 | 60 | 0.0 | 4.0 | 0.00 | 0.00 | 0.00 | 91 | 1010.6 |